FW4130 Weather Reports


time (UTC)temp
F
wind
direction
speed
knots
gust
knots
rain 1hr
in
rain 24hr
in
rain mn
in
humidity
%
barometer
mb
20260503072905 49 350 2.6 5.2 0.00 0.00 0.00 82 1018.8
20260503072804 49 349 1.7 5.2 0.00 0.00 0.00 82 1018.9
20260503072704 50 352 1.7 5.2 0.00 0.00 0.00 83 1018.9
20260503072404 50 338 1.7 3.5 0.00 0.00 0.00 80 1018.9
20260503072305 50 339 1.7 3.5 0.00 0.00 0.00 82 1018.9
20260503072205 50 340 1.7 3.5 0.00 0.00 0.00 75 1018.9
20260503072105 50 338 1.7 3.5 0.00 0.00 0.00 80 1018.7
20260503072006 50 338 1.7 3.5 0.00 0.00 0.00 81 1018.8
20260503071905 50 340 2.6 3.5 0.00 0.00 0.00 80 1019.0
20260503071805 50 334 2.6 3.5 0.00 0.00 0.00 80 1018.9
20260503071604 49 331 2.6 3.5 0.00 0.00 0.00 83 1018.8
20260503071404 50 333 1.7 3.5 0.00 0.00 0.00 83 1019.0
20260503071105 49 323 1.7 3.5 0.00 0.00 0.00 82 1019.2
20260503071005 49 321 1.7 3.5 0.00 0.00 0.00 79 1018.9
20260503070805 49 318 1.7 1.7 0.00 0.00 0.00 80 1018.8
20260503070705 49 323 1.7 1.7 0.00 0.00 0.00 81 1019.0
20260503070605 49 327 1.7 1.7 0.00 0.00 0.00 82 1018.9
20260503070505 49 332 1.7 1.7 0.00 0.00 0.00 83 1019.0
20260503060304 45 359 0.9 1.7 0.00 0.00 0.00 87 1018.9
20260503055105 44 292 0.0 1.7 0.00 0.00 0.00 86 1018.9
20260503055005 44 292 0.0 1.7 0.00 0.00 0.00 86 1019.0
20260503054904 44 292 0.0 1.7 0.00 0.00 0.00 86 1019.0
20260503054805 44 292 0.0 1.7 0.00 0.00 0.00 87 1019.0
20260503054705 44 292 0.0 1.7 0.00 0.00 0.00 87 1019.1
20260503054505 44 292 0.0 1.7 0.00 0.00 0.00 87 1019.0
20260503054405 44 0 0.0 0.0 0.00 0.00 0.00 88 1019.0
20260503054304 44 0 0.0 0.0 0.00 0.00 0.00 89 1019.1
20260503054204 43 0 0.0 0.0 0.00 0.00 0.00 89 1019.0
20260503054105 43 0 0.0 0.0 0.00 0.00 0.00 89 1019.0
20260503054005 43 0 0.0 0.0 0.00 0.00 0.00 89 1019.1
20260503053905 43 0 0.0 0.0 0.00 0.00 0.00 89 1018.9
20260503053805 43 0 0.0 0.0 0.00 0.00 0.00 89 1018.9
20260503053705 43 0 0.0 0.0 0.00 0.00 0.00 89 1019.0
20260503053505 43 0 0.0 0.0 0.00 0.00 0.00 88 1019.1
20260503053404 43 0 0.0 0.0 0.00 0.00 0.00 88 1018.9
20260503053304 42 0 0.0 0.0 0.00 0.00 0.00 88 1018.8
20260503053205 42 0 0.0 0.0 0.00 0.00 0.00 89 1019.0
20260503052905 42 0 0.0 0.0 0.00 0.00 0.00 91 1018.9
20260503052805 42 0 0.0 0.0 0.00 0.00 0.00 90 1019.1
20260503052705 42 0 0.0 0.0 0.00 0.00 0.00 91 1019.0
20260503052605 42 0 0.0 0.0 0.00 0.00 0.00 91 1019.0
20260503052505 42 0 0.0 0.0 0.00 0.00 0.00 91 1018.9
20260503052305 42 0 0.0 0.0 0.00 0.00 0.00 92 1018.8
20260503052204 42 158 0.0 1.7 0.00 0.00 0.00 92 1018.9
20260503052005 41 158 0.0 1.7 0.00 0.00 0.00 91 1019.0
20260503051904 41 158 0.9 1.7 0.00 0.00 0.00 92 1019.1
20260503051805 41 163 0.9 1.7 0.00 0.00 0.00 92 1018.9
20260503051605 41 168 0.9 1.7 0.00 0.00 0.00 92 1019.0
20260503051506 41 167 0.9 1.7 0.00 0.00 0.00 92 1019.0
20260503051305 40 165 0.9 1.7 0.00 0.00 0.00 92 1018.9
20260503051205 41 165 0.9 1.7 0.00 0.00 0.00 92 1019.0
20260503051104 41 166 0.9 1.7 0.00 0.00 0.00 92 1019.0
20260503051005 41 167 0.9 1.7 0.00 0.00 0.00 93 1019.1
20260503050904 41 167 0.9 1.7 0.00 0.00 0.00 93 1019.1
20260503050805 41 164 0.9 1.7 0.00 0.00 0.00 92 1019.0
20260503050705 40 162 0.9 1.7 0.00 0.00 0.00 92 1019.1
20260503050605 40 159 0.9 1.7 0.00 0.00 0.00 92 1019.0
20260503050505 40 159 1.7 1.7 0.00 0.00 0.00 93 1019.0
20260503050405 40 161 1.7 1.7 0.00 0.00 0.00 92 1019.1
20260503050304 40 158 1.7 1.7 0.00 0.00 0.00 93 1019.0
20260503050204 40 155 1.7 1.7 0.00 0.00 0.00 93 1019.0
20260503050105 40 154 1.7 1.7 0.00 0.00 0.00 93 1018.9
20260503050005 40 151 1.7 1.7 0.00 0.00 0.00 93 1018.9
20260503045805 40 151 1.7 1.7 0.00 0.00 0.00 92 1019.2
20260503045705 40 151 1.7 1.7 0.00 0.00 0.00 92 1019.1
20260503045604 40 151 1.7 1.7 0.00 0.00 0.00 92 1019.2
20260503045305 38 155 1.7 3.5 0.00 0.00 0.00 95 1019.1
20260503045204 38 160 1.7 3.5 0.00 0.00 0.00 96 1019.0
20260503045005 38 166 1.7 3.5 0.00 0.00 0.00 95 1019.2
20260503044904 38 168 1.7 3.5 0.00 0.00 0.00 95 1019.3
20260503044805 38 170 1.7 3.5 0.00 0.00 0.00 94 1019.1
20260503044705 38 172 1.7 3.5 0.00 0.00 0.00 95 1019.1
20260503044605 38 174 1.7 3.5 0.00 0.00 0.00 96 1019.2
20260503044505 38 177 1.7 3.5 0.00 0.00 0.00 96 1019.1
20260503044405 38 181 1.7 1.7 0.00 0.00 0.00 96 1019.2
20260503044304 38 181 1.7 1.7 0.00 0.00 0.00 96 1019.1
20260503044204 38 178 1.7 1.7 0.00 0.00 0.00 95 1018.9
20260503044104 38 176 1.7 1.7 0.00 0.00 0.00 96 1019.3
20260503044005 38 174 1.7 1.7 0.00 0.00 0.00 95 1019.1
20260503043805 38 170 1.7 1.7 0.00 0.00 0.00 95 1019.1
20260503043705 38 169 1.7 1.7 0.00 0.00 0.00 95 1019.1
20260503043604 37 168 1.7 1.7 0.00 0.00 0.00 95 1018.9
20260503043505 37 167 1.7 1.7 0.00 0.00 0.00 95 1019.1
20260503043404 37 167 1.7 1.7 0.00 0.00 0.00 95 1019.2
20260503043204 37 168 1.7 1.7 0.00 0.00 0.00 95 1019.1
20260503043104 37 170 1.7 1.7 0.00 0.00 0.00 95 1019.0
20260503043005 37 173 1.7 3.5 0.00 0.00 0.00 95 1019.1
20260503042905 37 173 2.6 3.5 0.00 0.00 0.00 95 1019.2
20260503042805 38 174 2.6 3.5 0.00 0.00 0.00 95 1019.1
20260503042705 38 173 2.6 3.5 0.00 0.00 0.00 95 1019.1
20260503042604 37 175 2.6 3.5 0.00 0.00 0.00 95 1019.1
20260503042505 37 173 2.6 3.5 0.00 0.00 0.00 96 1019.1
20260503042404 37 173 2.6 3.5 0.00 0.00 0.00 96 1019.2
20260503042305 36 171 3.5 3.5 0.00 0.00 0.00 96 1019.0
20260503042105 36 171 3.5 3.5 0.00 0.00 0.00 96 1019.1
20260503042006 36 170 2.6 3.5 0.00 0.00 0.00 96 1019.1
20260503041506 37 168 2.6 3.5 0.00 0.00 0.00 95 1019.1
20260503041405 37 168 1.7 3.5 0.00 0.00 0.00 95 1019.2
20260503041305 37 169 1.7 3.5 0.00 0.00 0.00 95 1019.1
20260503041204 37 165 1.7 1.7 0.00 0.00 0.00 95 1019.2
20260503041104 37 164 1.7 1.7 0.00 0.00 0.00 95 1019.1
20260503040904 37 161 1.7 1.7 0.00 0.00 0.00 95 1019.0
20260503040805 36 161 1.7 1.7 0.00 0.00 0.00 95 1019.1
20260503040705 36 161 1.7 1.7 0.00 0.00 0.00 95 1019.1
20260503040605 36 162 1.7 1.7 0.00 0.00 0.00 95 1019.1
20260503040405 37 162 1.7 1.7 0.00 0.00 0.00 95 1019.2
20260503040304 37 163 1.7 1.7 0.00 0.00 0.00 95 1019.1
20260503040205 37 167 1.7 1.7 0.00 0.00 0.00 95 1019.1
20260503040105 37 169 1.7 1.7 0.00 0.00 0.00 95 1019.2
20260503040006 37 171 1.7 1.7 0.00 0.00 0.00 95 1019.2
20260503035905 37 172 1.7 1.7 0.00 0.00 0.00 95 1019.2
20260503035804 37 173 1.7 1.7 0.00 0.00 0.00 95 1019.1
20260503035604 37 173 1.7 1.7 0.00 0.00 0.00 95 1019.1
20260503035505 37 173 1.7 1.7 0.00 0.00 0.00 95 1019.3
20260503035404 37 171 1.7 1.7 0.00 0.00 0.00 96 1019.1
20260503035305 37 170 1.7 1.7 0.00 0.00 0.00 96 1019.2
20260503035205 37 169 1.7 1.7 0.00 0.00 0.00 95 1019.1
20260503035005 37 164 1.7 1.7 0.00 0.00 0.00 95 1019.3
20260503034805 36 164 1.7 1.7 0.00 0.00 0.00 95 1019.3
20260503034704 36 164 1.7 1.7 0.00 0.00 0.00 95 1019.2
20260503034604 37 165 1.7 1.7 0.00 0.00 0.00 95 1019.3
20260503034505 37 166 1.7 1.7 0.00 0.00 0.00 95 1019.1
20260503034404 37 169 1.7 1.7 0.00 0.00 0.00 95 1019.2
20260503034305 37 171 1.7 1.7 0.00 0.00 0.00 95 1019.2
20260503034205 37 172 1.7 1.7 0.00 0.00 0.00 95 1019.1
20260503034005 36 171 1.7 1.7 0.00 0.00 0.00 95 1019.1
20260503033905 36 170 1.7 1.7 0.00 0.00 0.00 95 1019.2
20260503033604 37 171 1.7 1.7 0.00 0.00 0.00 95 1019.0
20260503033505 37 171 1.7 1.7 0.00 0.00 0.00 95 1019.1
20260503033404 36 168 1.7 1.7 0.00 0.00 0.00 95 1019.2
20260503033305 36 168 1.7 1.7 0.00 0.00 0.00 96 1019.3
20260503033205 36 166 1.7 1.7 0.00 0.00 0.00 95 1019.2
20260503033104 37 165 1.7 1.7 0.00 0.00 0.00 96 1019.4
20260503033005 37 165 1.7 1.7 0.00 0.00 0.00 95 1019.4
20260503032905 37 165 1.7 1.7 0.00 0.00 0.00 95 1019.2
20260503032804 37 163 1.7 1.7 0.00 0.00 0.00 95 1019.4
20260503032704 37 162 1.7 1.7 0.00 0.00 0.00 95 1019.3
20260503032604 37 161 1.7 1.7 0.00 0.00 0.00 95 1019.3
20260503032505 37 163 1.7 1.7 0.00 0.00 0.00 95 1019.3
20260503032404 37 164 1.7 1.7 0.00 0.00 0.00 95 1019.2
20260503032305 37 162 1.7 1.7 0.00 0.00 0.00 95 1019.3
20260503032205 37 165 1.7 1.7 0.00 0.00 0.00 95 1019.4
20260503032105 37 165 1.7 1.7 0.00 0.00 0.00 95 1019.2
20260503032005 37 165 1.7 1.7 0.00 0.00 0.00 94 1019.4
20260503031905 37 165 1.7 1.7 0.00 0.00 0.00 95 1019.3
20260503031804 37 165 1.7 1.7 0.00 0.00 0.00 95 1019.3
20260503031604 37 168 1.7 1.7 0.00 0.00 0.00 95 1019.3
20260503031505 37 167 1.7 1.7 0.00 0.00 0.00 95 1019.2
20260503031404 37 166 1.7 1.7 0.00 0.00 0.00 95 1019.2
20260503031305 37 167 1.7 1.7 0.00 0.00 0.00 95 1019.2
20260503031205 37 164 1.7 1.7 0.00 0.00 0.00 95 1019.4
20260503031105 37 163 1.7 1.7 0.00 0.00 0.00 95 1019.3
20260503030905 37 164 1.7 1.7 0.00 0.00 0.00 95 1019.5
20260503030604 37 161 1.7 1.7 0.00 0.00 0.00 95 1019.4
20260503030505 37 159 1.7 1.7 0.00 0.00 0.00 95 1019.5
20260503030405 37 159 1.7 1.7 0.00 0.00 0.00 95 1019.5
20260503030204 37 159 1.7 1.7 0.00 0.00 0.00 95 1019.4
20260503030105 37 159 1.7 1.7 0.00 0.00 0.00 95 1019.3
20260503025904 37 158 1.7 1.7 0.00 0.00 0.00 95 1019.4
20260503025705 37 161 1.7 1.7 0.00 0.00 0.00 95 1019.4
20260503025605 37 163 1.7 1.7 0.00 0.00 0.00 95 1019.5
20260503025405 36 166 1.7 1.7 0.00 0.00 0.00 95 1019.3
20260503025305 36 168 1.7 1.7 0.00 0.00 0.00 95 1019.5
20260503025204 37 170 1.7 1.7 0.00 0.00 0.00 95 1019.6
20260503025104 37 170 1.7 1.7 0.00 0.00 0.00 95 1019.3
20260503025005 37 173 1.7 1.7 0.00 0.00 0.00 95 1019.6
20260503024904 37 174 1.7 1.7 0.00 0.00 0.00 95 1019.5
20260503024805 37 175 1.7 1.7 0.00 0.00 0.00 95 1019.5
20260503024705 37 176 1.7 1.7 0.00 0.00 0.00 95 1019.5
20260503024605 37 174 1.7 1.7 0.00 0.00 0.00 95 1019.4
20260503024505 37 172 1.7 1.7 0.00 0.00 0.00 95 1019.4
20260503024404 37 172 1.7 1.7 0.00 0.00 0.00 95 1019.3
20260503024304 37 170 1.7 1.7 0.00 0.00 0.00 95 1019.5
20260503024204 36 168 1.7 1.7 0.00 0.00 0.00 95 1019.5
20260503024104 37 168 1.7 1.7 0.00 0.00 0.00 95 1019.6
20260503023904 37 165 1.7 1.7 0.00 0.00 0.00 95 1019.6
20260503023804 37 162 1.7 1.7 0.00 0.00 0.00 95 1019.6
20260503023705 37 162 1.7 1.7 0.00 0.00 0.00 94 1019.6
20260503023605 37 162 1.7 1.7 0.00 0.00 0.00 94 1019.5
20260503023505 37 164 1.7 1.7 0.00 0.00 0.00 94 1019.5
20260503023405 37 164 1.7 1.7 0.00 0.00 0.00 95 1019.5
20260503023304 37 164 1.7 1.7 0.00 0.00 0.00 95 1019.6
20260503023204 37 166 1.7 1.7 0.00 0.00 0.00 95 1019.7
20260503023105 37 167 1.7 1.7 0.00 0.00 0.00 94 1019.5
20260503023005 37 167 1.7 1.7 0.00 0.00 0.00 95 1019.6
20260503022805 37 167 1.7 1.7 0.00 0.00 0.00 94 1019.8
20260503022705 37 165 1.7 1.7 0.00 0.00 0.00 95 1019.6
20260503022604 37 165 1.7 1.7 0.00 0.00 0.00 95 1019.6
20260503022405 38 163 1.7 1.7 0.00 0.00 0.00 95 1019.7
20260503022305 37 165 1.7 1.7 0.00 0.00 0.00 94 1019.5
20260503022204 38 163 1.7 1.7 0.00 0.00 0.00 94 1019.5
20260503022104 37 161 1.7 1.7 0.00 0.00 0.00 94 1019.7
20260503022005 37 161 1.7 1.7 0.00 0.00 0.00 94 1019.6
20260503021905 37 160 1.7 1.7 0.00 0.00 0.00 94 1019.6
20260503021805 37 158 1.7 1.7 0.00 0.00 0.00 94 1019.6
20260503021704 37 157 1.7 1.7 0.00 0.00 0.00 94 1019.4
20260503021604 37 157 1.7 1.7 0.00 0.00 0.00 94 1019.5
20260503021505 38 160 1.7 1.7 0.00 0.00 0.00 94 1019.6
20260503021404 38 162 1.7 1.7 0.00 0.00 0.00 94 1019.5
20260503021304 38 160 1.7 1.7 0.00 0.00 0.00 94 1019.6
20260503021205 38 160 1.7 1.7 0.00 0.00 0.00 94 1019.7
20260503021105 38 162 1.7 1.7 0.00 0.00 0.00 94 1019.6
20260503021005 38 164 1.7 1.7 0.00 0.00 0.00 94 1019.7
20260503020905 38 164 1.7 1.7 0.00 0.00 0.00 94 1019.6
20260503020804 38 165 1.7 1.7 0.00 0.00 0.00 94 1019.6
20260503020704 37 168 1.7 1.7 0.00 0.00 0.00 94 1019.6
20260503020505 37 169 1.7 1.7 0.00 0.00 0.00 94 1019.6
20260503020404 37 167 1.7 1.7 0.00 0.00 0.00 94 1019.7
20260503020105 37 166 1.7 1.7 0.00 0.00 0.00 94 1019.7
20260503020006 37 164 1.7 1.7 0.00 0.00 0.00 94 1019.7
20260503015905 38 164 1.7 1.7 0.00 0.00 0.00 94 1019.7
20260503015804 38 162 1.7 1.7 0.00 0.00 0.00 94 1019.7
20260503015704 38 160 1.7 1.7 0.00 0.00 0.00 94 1019.7
20260503015505 38 159 1.7 1.7 0.00 0.00 0.00 94 1019.5
20260503015305 38 159 1.7 1.7 0.00 0.00 0.00 93 1019.9
20260503015204 38 157 1.7 1.7 0.00 0.00 0.00 93 1019.8
20260503015105 38 157 1.7 1.7 0.00 0.00 0.00 93 1019.8
20260503015005 38 156 1.7 1.7 0.00 0.00 0.00 94 1019.7
20260503014805 38 156 1.7 1.7 0.00 0.00 0.00 94 1019.8
20260503014705 38 156 1.7 1.7 0.00 0.00 0.00 94 1019.7
20260503014505 38 154 1.7 1.7 0.00 0.00 0.00 94 1019.9
20260503014405 38 155 1.7 1.7 0.00 0.00 0.00 94 1019.6
20260503014204 38 156 0.9 1.7 0.00 0.00 0.00 95 1019.7
20260503014104 38 156 0.9 1.7 0.00 0.00 0.00 94 1019.9
20260503014005 38 158 0.9 1.7 0.00 0.00 0.00 94 1019.8
20260503013904 38 158 0.9 1.7 0.00 0.00 0.00 94 1019.7
20260503013805 38 158 0.9 1.7 0.00 0.00 0.00 94 1019.5
20260503013705 38 158 0.9 1.7 0.00 0.00 0.00 94 1019.6
20260503013605 38 156 0.9 1.7 0.00 0.00 0.00 94 1019.7
20260503013505 38 154 0.9 1.7 0.00 0.00 0.00 94 1019.7
20260503013404 38 154 0.9 1.7 0.00 0.00 0.00 94 1019.9
20260503013304 38 154 1.7 1.7 0.00 0.00 0.00 94 1019.7
20260503013105 38 152 1.7 1.7 0.00 0.00 0.00 94 1019.8
20260503013005 38 152 1.7 1.7 0.00 0.00 0.00 95 1019.8
20260503012905 38 152 1.7 1.7 0.00 0.00 0.00 95 1019.9
20260503012805 38 152 1.7 1.7 0.00 0.00 0.00 95 1019.8
20260503012604 37 154 1.7 1.7 0.00 0.00 0.00 94 1019.9
20260503012505 37 155 1.7 1.7 0.00 0.00 0.00 95 1020.0
20260503012405 37 154 1.7 1.7 0.00 0.00 0.00 95 1019.8
20260503012305 38 154 1.7 1.7 0.00 0.00 0.00 94 1019.9
20260503012204 38 154 1.7 1.7 0.00 0.00 0.00 94 1019.9
20260503012104 38 155 1.7 1.7 0.00 0.00 0.00 94 1020.0
20260503011904 38 155 1.7 1.7 0.00 0.00 0.00 93 1019.9
20260503011805 38 157 1.7 1.7 0.00 0.00 0.00 93 1019.7
20260503011705 38 159 1.7 1.7 0.00 0.00 0.00 94 1019.8
20260503011604 38 162 1.7 1.7 0.00 0.00 0.00 94 1019.9
20260503011405 38 164 1.7 1.7 0.00 0.00 0.00 94 1019.9
20260503011305 38 164 1.7 1.7 0.00 0.00 0.00 94 1019.8
20260503011204 38 164 1.7 1.7 0.00 0.00 0.00 94 1019.9
20260503011104 38 164 1.7 1.7 0.00 0.00 0.00 93 1020.0
20260503011005 38 164 1.7 1.7 0.00 0.00 0.00 93 1020.0
20260503010904 38 164 1.7 1.7 0.00 0.00 0.00 93 1020.0
20260503010805 38 165 1.7 1.7 0.00 0.00 0.00 93 1020.1
20260503010705 38 162 1.7 1.7 0.00 0.00 0.00 93 1020.0
20260503010605 38 160 1.7 1.7 0.00 0.00 0.00 94 1020.0
20260503010505 38 161 1.7 1.7 0.00 0.00 0.00 93 1019.8
20260503010405 38 162 1.7 1.7 0.00 0.00 0.00 93 1019.9
20260503010204 38 164 1.7 1.7 0.00 0.00 0.00 94 1020.0
20260503010104 38 165 1.7 1.7 0.00 0.00 0.00 93 1020.0
20260503010005 38 165 1.7 1.7 0.00 0.00 0.00 94 1019.9
20260503005904 38 167 1.7 1.7 0.00 0.00 0.00 94 1020.1
20260503005804 38 166 1.7 1.7 0.00 0.00 0.00 94 1019.9
20260503005705 38 165 1.7 1.7 0.00 0.00 0.00 94 1020.1
20260503005605 38 164 1.7 1.7 0.00 0.00 0.00 93 1020.0
20260503005505 38 165 1.7 1.7 0.00 0.00 0.00 93 1019.8
20260503005405 38 163 1.7 1.7 0.00 0.00 0.00 93 1020.1
20260503005205 38 162 1.7 1.7 0.00 0.00 0.00 92 1020.0
20260503004905 39 157 1.7 1.7 0.00 0.00 0.00 92 1020.0
20260503004804 39 157 1.7 1.7 0.00 0.00 0.00 92 1020.1
20260503004704 39 159 1.7 1.7 0.00 0.00 0.00 92 1019.8
20260503004604 39 160 1.7 1.7 0.00 0.00 0.00 92 1019.9
20260503004505 39 159 1.7 1.7 0.00 0.00 0.00 93 1020.0
20260503004404 39 159 1.7 1.7 0.00 0.00 0.00 93 1020.1
20260503004305 38 159 1.7 1.7 0.00 0.00 0.00 93 1020.1
20260503004105 38 159 1.7 1.7 0.00 0.00 0.00 93 1020.2
20260503003705 38 164 1.7 1.7 0.00 0.00 0.00 93 1020.3
20260503003604 38 163 1.7 1.7 0.00 0.00 0.00 93 1020.3
20260503003405 38 162 1.7 1.7 0.00 0.00 0.00 93 1020.1
20260503003304 38 163 1.7 1.7 0.00 0.00 0.00 92 1020.0
20260503003204 38 166 1.7 1.7 0.00 0.00 0.00 93 1020.2
20260503003104 38 168 1.7 1.7 0.00 0.00 0.00 93 1020.1
20260503003005 38 168 1.7 1.7 0.00 0.00 0.00 93 1020.2
20260503002904 38 169 1.7 1.7 0.00 0.00 0.00 93 1020.3
20260503002805 38 169 1.7 1.7 0.00 0.00 0.00 93 1020.2
20260503002704 38 170 1.7 1.7 0.00 0.00 0.00 93 1020.2
20260503002604 38 170 1.7 1.7 0.00 0.00 0.00 93 1020.2
20260503002505 38 170 1.7 1.7 0.00 0.00 0.00 93 1020.5
20260503002305 38 169 1.7 1.7 0.00 0.00 0.00 93 1020.2
20260503002205 39 167 1.7 1.7 0.00 0.00 0.00 92 1020.2
20260503002104 39 166 1.7 1.7 0.00 0.00 0.00 93 1020.2
20260503002005 39 164 1.7 1.7 0.00 0.00 0.00 92 1020.2
20260503001905 39 161 1.7 1.7 0.00 0.00 0.00 92 1020.3
20260503001804 39 162 1.7 1.7 0.00 0.00 0.00 92 1020.3
20260503001505 39 162 1.7 1.7 0.00 0.00 0.00 92 1020.2
20260503001404 39 162 1.7 1.7 0.00 0.00 0.00 92 1020.3
20260503001304 39 162 1.7 1.7 0.00 0.00 0.00 92 1020.5
20260503001204 39 161 1.7 1.7 0.00 0.00 0.00 92 1020.3
20260503001105 39 161 1.7 1.7 0.00 0.00 0.00 92 1020.4
20260503001005 39 161 1.7 1.7 0.00 0.00 0.00 92 1020.5
20260503000905 39 161 1.7 1.7 0.00 0.00 0.00 91 1020.5
20260503000805 39 159 1.7 1.7 0.00 0.00 0.00 92 1020.2
20260503000704 39 159 1.7 1.7 0.00 0.00 0.00 92 1020.5
20260503000605 39 159 1.7 1.7 0.00 0.00 0.00 91 1020.5
20260503000505 39 159 1.7 1.7 0.00 0.00 0.00 91 1020.2
20260503000404 39 161 1.7 1.7 0.00 0.00 0.00 91 1020.3
20260503000305 39 163 1.7 1.7 0.00 0.00 0.00 91 1020.3
20260503000204 39 167 1.7 1.7 0.00 0.00 0.00 91 1020.7
20260503000005 39 167 1.7 3.5 0.00 0.00 0.00 91 1020.4
20260502235904 39 167 1.7 3.5 0.00 0.00 0.00 91 1020.2
20260502235704 39 167 1.7 3.5 0.00 0.00 0.00 90 1020.5
20260502235604 40 167 1.7 3.5 0.00 0.00 0.00 90 1020.4
20260502235505 40 167 1.7 3.5 0.00 0.00 0.00 90 1020.4
20260502235305 40 161 1.7 3.5 0.00 0.00 0.00 90 1020.4
20260502235204 40 159 1.7 3.5 0.00 0.00 0.00 90 1020.5
20260502235105 40 159 1.7 3.5 0.00 0.00 0.00 90 1020.4
20260502235005 39 157 1.7 3.5 0.00 0.00 0.00 90 1020.5
20260502234905 39 156 1.7 3.5 0.00 0.00 0.00 91 1020.6
20260502234604 39 151 1.7 1.7 0.00 0.00 0.00 91 1020.3
20260502234505 39 152 1.7 3.5 0.00 0.00 0.00 90 1020.4
20260502234404 39 152 1.7 3.5 0.00 0.00 0.00 91 1020.6
20260502234305 39 156 1.7 3.5 0.00 0.00 0.00 91 1020.6
20260502234205 39 155 1.7 3.5 0.00 0.00 0.00 91 1020.5
20260502234104 40 154 2.6 3.5 0.00 0.00 0.00 92 1020.6
20260502234005 40 154 2.6 3.5 0.00 0.00 0.00 91 1020.7
20260502233904 40 155 2.6 3.5 0.00 0.00 0.00 90 1020.7
20260502233804 40 156 2.6 3.5 0.00 0.00 0.00 89 1020.5
20260502233705 40 157 2.6 3.5 0.00 0.00 0.00 89 1020.5
20260502233604 40 157 2.6 3.5 0.00 0.00 0.00 89 1020.6
20260502233505 40 157 2.6 3.5 0.00 0.00 0.00 89 1020.6
20260502233404 40 157 2.6 3.5 0.00 0.00 0.00 89 1020.7
20260502233304 40 157 2.6 3.5 0.00 0.00 0.00 89 1020.5
20260502233204 40 158 1.7 3.5 0.00 0.00 0.00 89 1020.6
20260502233104 40 159 1.7 3.5 0.00 0.00 0.00 89 1020.6
20260502233005 40 160 1.7 1.7 0.00 0.00 0.00 89 1020.7
20260502232705 40 160 1.7 1.7 0.00 0.00 0.00 90 1020.6
20260502232605 40 159 1.7 1.7 0.00 0.00 0.00 90 1020.8
20260502232505 40 158 1.7 1.7 0.00 0.00 0.00 90 1020.7
20260502232405 40 158 1.7 1.7 0.00 0.00 0.00 90 1020.7
20260502232305 40 160 1.7 3.5 0.00 0.00 0.00 90 1020.7
20260502232104 40 160 1.7 3.5 0.00 0.00 0.00 89 1020.6
20260502231904 41 159 1.7 3.5 0.00 0.00 0.00 88 1020.7
20260502231804 41 159 1.7 3.5 0.00 0.00 0.00 88 1020.9
20260502231705 41 159 1.7 3.5 0.00 0.00 0.00 88 1020.6
20260502231604 41 160 1.7 3.5 0.00 0.00 0.00 88 1020.6
20260502231405 41 160 1.7 3.5 0.00 0.00 0.00 88 1020.7
20260502231304 41 156 1.7 3.5 0.00 0.00 0.00 88 1020.7
20260502231204 41 156 1.7 3.5 0.00 0.00 0.00 88 1020.5
20260502231005 40 154 1.7 1.7 0.00 0.00 0.00 88 1020.7
20260502230804 40 155 1.7 1.7 0.00 0.00 0.00 88 1020.9
20260502230704 40 155 1.7 1.7 0.00 0.00 0.00 89 1020.9
20260502230605 40 154 1.7 1.7 0.00 0.00 0.00 88 1020.7
20260502230405 40 152 1.7 1.7 0.00 0.00 0.00 89 1020.9
20260502230305 40 153 1.7 1.7 0.00 0.00 0.00 89 1021.0
20260502230005 40 150 1.7 1.7 0.00 0.00 0.00 90 1020.7
20260502225904 40 149 1.7 1.7 0.00 0.00 0.00 90 1020.8
20260502225804 40 148 1.7 1.7 0.00 0.00 0.00 89 1021.1
20260502225704 40 147 1.7 1.7 0.00 0.00 0.00 89 1021.1
20260502225605 40 146 1.7 1.7 0.00 0.00 0.00 89 1020.8
20260502225505 40 147 1.7 1.7 0.00 0.00 0.00 89 1020.8
20260502225405 40 149 1.7 1.7 0.00 0.00 0.00 89 1020.8
20260502225305 40 149 1.7 1.7 0.00 0.00 0.00 89 1020.8
20260502225204 40 149 1.7 1.7 0.00 0.00 0.00 89 1020.9
20260502225005 41 153 1.7 1.7 0.00 0.00 0.00 89 1020.9
20260502224904 41 151 1.7 1.7 0.00 0.00 0.00 89 1020.9
20260502224804 41 151 1.7 1.7 0.00 0.00 0.00 89 1020.7
20260502224705 41 153 1.7 1.7 0.00 0.00 0.00 89 1020.8
20260502224605 41 154 1.7 1.7 0.00 0.00 0.00 89 1020.8
20260502224506 41 152 1.7 1.7 0.00 0.00 0.00 88 1020.8
20260502224404 41 151 1.7 1.7 0.00 0.00 0.00 88 1020.7
20260502224304 41 151 1.7 1.7 0.00 0.00 0.00 89 1020.8
20260502224104 41 148 1.7 3.5 0.00 0.00 0.00 89 1020.8
20260502224005 41 149 1.7 3.5 0.00 0.00 0.00 88 1020.7
20260502223904 41 148 2.6 3.5 0.00 0.00 0.00 88 1020.9
20260502223705 41 149 2.6 3.5 0.00 0.00 0.00 89 1020.9
20260502223604 41 151 2.6 3.5 0.00 0.00 0.00 88 1020.7
20260502223505 41 150 2.6 3.5 0.00 0.00 0.00 88 1020.8
20260502223405 42 151 2.6 3.5 0.00 0.00 0.00 88 1021.0
20260502223204 42 152 2.6 3.5 0.00 0.00 0.00 88 1021.0
20260502223104 42 153 1.7 3.5 0.00 0.00 0.00 88 1020.9
20260502223005 42 151 1.7 3.5 0.00 0.00 0.00 88 1020.8
20260502222804 41 155 1.7 1.7 0.00 0.00 0.00 88 1020.7
20260502222704 41 152 1.7 1.7 0.00 0.00 0.00 88 1021.0
20260502222505 41 149 1.7 1.7 0.00 0.00 0.00 88 1021.0
20260502222405 41 147 1.7 1.7 0.00 0.00 0.00 88 1021.0
20260502222305 41 145 1.7 1.7 0.00 0.00 0.00 89 1021.0
20260502222104 41 140 1.7 3.5 0.00 0.00 0.00 88 1021.0
20260502222005 42 140 1.7 3.5 0.00 0.00 0.00 88 1021.0
20260502221904 42 138 1.7 3.5 0.00 0.00 0.00 88 1021.0
20260502221804 42 138 1.7 3.5 0.00 0.00 0.00 88 1020.9
20260502221604 42 141 1.7 3.5 0.00 0.00 0.00 88 1020.8
20260502221404 42 143 1.7 3.5 0.00 0.00 0.00 87 1020.8
20260502221304 42 142 1.7 3.5 0.00 0.00 0.00 87 1020.9
20260502221005 41 150 2.6 3.5 0.00 0.00 0.00 88 1021.1
20260502220905 41 153 2.6 3.5 0.00 0.00 0.00 88 1020.9
20260502220804 41 151 2.6 3.5 0.00 0.00 0.00 88 1021.0
20260502220604 41 148 3.5 3.5 0.00 0.00 0.00 88 1021.0
20260502220505 42 145 3.5 3.5 0.00 0.00 0.00 88 1020.9
20260502220405 42 145 3.5 3.5 0.00 0.00 0.00 88 1020.8
20260502220305 42 147 3.5 3.5 0.00 0.00 0.00 87 1020.8
20260502220204 42 146 3.5 3.5 0.00 0.00 0.00 87 1020.9
20260502220104 42 148 3.5 3.5 0.00 0.00 0.00 87 1020.8
20260502220007 42 148 3.5 3.5 0.00 0.00 0.00 87 1021.0
20260502215904 42 147 3.5 3.5 0.00 0.00 0.00 86 1020.9
20260502215804 42 147 3.5 3.5 0.00 0.00 0.00 86 1020.9
20260502215704 42 147 3.5 3.5 0.00 0.00 0.00 87 1021.0
20260502215605 42 146 2.6 3.5 0.00 0.00 0.00 87 1021.0
20260502215505 42 149 2.6 3.5 0.00 0.00 0.00 87 1021.0
20260502215405 42 150 2.6 3.5 0.00 0.00 0.00 88 1021.1
20260502215305 42 145 2.6 3.5 0.00 0.00 0.00 86 1020.8
20260502215204 42 142 2.6 3.5 0.00 0.00 0.00 86 1020.8
20260502215105 42 139 2.6 3.5 0.00 0.00 0.00 86 1020.9
20260502215005 42 139 2.6 3.5 0.00 0.00 0.00 87 1021.2
20260502214905 42 138 2.6 3.5 0.00 0.00 0.00 87 1020.8
20260502214804 42 141 2.6 5.2 0.00 0.00 0.00 87 1020.8
20260502214704 42 142 2.6 5.2 0.00 0.00 0.00 87 1020.8
20260502214605 43 143 2.6 5.2 0.00 0.00 0.00 87 1021.0
20260502214404 43 142 2.6 5.2 0.00 0.00 0.00 85 1021.1
20260502214304 42 143 2.6 5.2 0.00 0.00 0.00 85 1020.9
20260502214204 42 143 2.6 5.2 0.00 0.00 0.00 85 1021.0
20260502214105 42 143 2.6 5.2 0.00 0.00 0.00 85 1020.9
20260502213905 42 142 2.6 5.2 0.00 0.00 0.00 86 1020.8
20260502213604 43 134 3.5 5.2 0.00 0.00 0.00 86 1020.9
20260502213505 43 136 3.5 5.2 0.00 0.00 0.00 86 1020.8
20260502213404 43 137 3.5 5.2 0.00 0.00 0.00 86 1020.7
20260502213104 43 137 3.5 5.2 0.00 0.00 0.00 84 1020.9
20260502213005 43 137 3.5 5.2 0.00 0.00 0.00 84 1021.0
20260502212904 43 134 3.5 5.2 0.00 0.00 0.00 84 1021.0
20260502212705 43 127 3.5 3.5 0.00 0.00 0.00 84 1021.0
20260502212605 43 128 3.5 3.5 0.00 0.00 0.00 84 1020.9
20260502212506 43 127 3.5 3.5 0.00 0.00 0.00 84 1021.0
20260502212404 43 128 3.5 5.2 0.00 0.00 0.00 84 1020.9
20260502212305 43 127 3.5 5.2 0.00 0.00 0.00 84 1020.7
20260502212105 43 123 3.5 5.2 0.00 0.00 0.00 84 1020.9
20260502212005 44 123 4.3 5.2 0.00 0.00 0.00 84 1021.0
20260502211904 43 122 4.3 5.2 0.00 0.00 0.00 83 1021.1
20260502211804 43 124 4.3 5.2 0.00 0.00 0.00 83 1021.1
20260502211705 44 122 4.3 5.2 0.00 0.00 0.00 83 1020.9
20260502211604 44 122 4.3 5.2 0.00 0.00 0.00 83 1020.9
20260502211505 44 120 4.3 5.2 0.00 0.00 0.00 83 1021.0
20260502211404 44 117 4.3 5.2 0.00 0.00 0.00 84 1021.0
20260502211204 44 121 4.3 6.1 0.00 0.00 0.00 83 1020.9
20260502211105 44 122 4.3 6.1 0.00 0.00 0.00 83 1021.1
20260502211006 44 123 4.3 6.1 0.00 0.00 0.00 83 1021.2
20260502210905 44 122 4.3 6.1 0.00 0.00 0.00 83 1021.2
20260502210804 44 123 4.3 6.1 0.00 0.00 0.00 83 1021.1
20260502210704 44 128 4.3 6.1 0.00 0.00 0.00 84 1021.0
20260502210605 44 130 4.3 6.1 0.00 0.00 0.00 83 1021.1
20260502210505 43 131 4.3 6.1 0.00 0.00 0.00 83 1021.1
20260502210404 43 130 4.3 6.1 0.00 0.00 0.00 83 1021.0
20260502210205 43 122 4.3 6.1 0.00 0.00 0.00 83 1021.1
20260502210104 43 120 4.3 6.1 0.00 0.00 0.00 83 1021.4
20260502210005 43 119 4.3 6.1 0.00 0.00 0.00 84 1021.1
20260502205904 44 121 4.3 6.1 0.00 0.00 0.00 83 1021.2
20260502205804 44 122 4.3 6.1 0.00 0.00 0.00 83 1021.1
20260502205705 44 120 4.3 6.1 0.00 0.00 0.00 83 1021.1
20260502205604 44 118 3.5 6.1 0.00 0.00 0.00 83 1021.2
20260502205505 44 115 3.5 6.1 0.00 0.00 0.00 83 1021.1
20260502205404 44 116 3.5 5.2 0.00 0.00 0.00 83 1021.0
20260502205305 44 121 3.5 3.5 0.00 0.00 0.00 83 1021.1
20260502205205 44 123 3.5 3.5 0.00 0.00 0.00 83 1021.1
20260502205104 44 126 3.5 3.5 0.00 0.00 0.00 83 1021.2
20260502205005 44 128 3.5 3.5 0.00 0.00 0.00 83 1021.2
20260502204804 44 126 3.5 3.5 0.00 0.00 0.00 83 1021.1
20260502204704 44 122 3.5 3.5 0.00 0.00 0.00 83 1021.1
20260502204605 44 121 3.5 3.5 0.00 0.00 0.00 83 1021.1
20260502204505 44 125 2.6 3.5 0.00 0.00 0.00 83 1021.1
20260502204404 44 124 2.6 3.5 0.00 0.00 0.00 82 1021.2
20260502204304 44 124 2.6 3.5 0.00 0.00 0.00 82 1021.1
20260502204204 44 123 2.6 3.5 0.00 0.00 0.00 82 1020.9
20260502203905 44 119 2.6 3.5 0.00 0.00 0.00 82 1021.1
20260502203804 44 119 2.6 3.5 0.00 0.00 0.00 82 1021.2
20260502203704 44 119 2.6 3.5 0.00 0.00 0.00 83 1021.0
20260502203506 44 118 2.6 3.5 0.00 0.00 0.00 82 1021.1
20260502203405 44 116 2.6 3.5 0.00 0.00 0.00 82 1021.2
20260502203304 44 115 2.6 3.5 0.00 0.00 0.00 82 1021.4
20260502203204 44 117 2.6 3.5 0.00 0.00 0.00 82 1021.1
20260502203105 44 119 2.6 3.5 0.00 0.00 0.00 82 1020.9
20260502203005 44 117 2.6 3.5 0.00 0.00 0.00 82 1021.2
20260502202904 44 119 1.7 3.5 0.00 0.00 0.00 82 1021.1
20260502202804 44 120 1.7 3.5 0.00 0.00 0.00 83 1021.1
20260502202705 44 122 1.7 3.5 0.00 0.00 0.00 82 1021.0
20260502202605 45 114 1.7 3.5 0.00 0.00 0.00 82 1021.1
20260502202505 44 118 1.7 3.5 0.00 0.00 0.00 82 1021.1
20260502202204 45 123 1.7 3.5 0.00 0.00 0.00 82 1021.2
20260502202104 45 123 1.7 3.5 0.00 0.00 0.00 81 1021.5
20260502201904 45 126 1.7 3.5 0.00 0.00 0.00 81 1021.3
20260502201804 44 125 1.7 3.5 0.00 0.00 0.00 81 1021.0
20260502201705 44 126 1.7 3.5 0.00 0.00 0.00 81 1021.2
20260502201405 44 136 1.7 3.5 0.00 0.00 0.00 82 1021.2
20260502201304 44 136 1.7 3.5 0.00 0.00 0.00 81 1021.2
20260502201204 44 139 1.7 3.5 0.00 0.00 0.00 81 1021.3
20260502201104 45 129 1.7 3.5 0.00 0.00 0.00 82 1021.4
20260502201005 45 130 1.7 3.5 0.00 0.00 0.00 81 1021.3
20260502200904 45 131 1.7 3.5 0.00 0.00 0.00 81 1021.3
20260502200804 45 135 1.7 3.5 0.00 0.00 0.00 81 1021.1
20260502200705 45 131 1.7 3.5 0.00 0.00 0.00 82 1021.1
20260502200604 45 133 1.7 3.5 0.00 0.00 0.00 82 1021.1
20260502200505 45 119 2.6 5.2 0.00 0.00 0.00 81 1021.3
20260502200204 46 103 2.6 5.2 0.00 0.00 0.00 81 1021.1
20260502200104 46 113 2.6 5.2 0.00 0.00 0.00 81 1021.0
20260502195904 46 104 2.6 5.2 0.00 0.00 0.00 80 1021.2
20260502195804 46 97 2.6 5.2 0.00 0.00 0.00 79 1021.1
20260502195705 46 98 2.6 5.2 0.00 0.00 0.00 80 1021.2
20260502195604 46 98 2.6 5.2 0.00 0.00 0.00 79 1021.2
20260502195505 45 105 2.6 5.2 0.00 0.00 0.00 79 1021.3
20260502195404 46 112 2.6 5.2 0.00 0.00 0.00 79 1021.2
20260502195305 46 112 2.6 5.2 0.00 0.00 0.00 79 1021.2
20260502195204 46 114 2.6 5.2 0.00 0.00 0.00 80 1021.3
20260502195104 46 114 2.6 5.2 0.00 0.00 0.00 79 1021.3
20260502195005 45 119 2.6 5.2 0.00 0.00 0.00 80 1021.1
20260502194904 46 120 2.6 5.2 0.00 0.00 0.00 81 1021.0
20260502194805 46 126 2.6 5.2 0.00 0.00 0.00 80 1021.1
20260502194604 46 129 2.6 5.2 0.00 0.00 0.00 79 1021.3
20260502194505 46 130 2.6 5.2 0.00 0.00 0.00 79 1021.2
20260502194404 46 130 2.6 5.2 0.00 0.00 0.00 80 1021.1
20260502194304 46 129 3.5 5.2 0.00 0.00 0.00 80 1021.1
20260502194205 46 128 2.6 5.2 0.00 0.00 0.00 79 1021.0
20260502193905 45 129 2.6 5.2 0.00 0.00 0.00 80 1021.2
20260502193804 46 126 2.6 3.5 0.00 0.00 0.00 81 1021.2
20260502193704 46 123 2.6 3.5 0.00 0.00 0.00 80 1021.1
20260502193604 46 125 2.6 3.5 0.00 0.00 0.00 80 1021.1
20260502193505 46 124 2.6 3.5 0.00 0.00 0.00 79 1021.1
20260502193104 46 127 1.7 3.5 0.00 0.00 0.00 78 1021.2
20260502193005 45 129 1.7 3.5 0.00 0.00 0.00 78 1021.1
20260502192904 45 125 1.7 3.5 0.00 0.00 0.00 79 1021.1
20260502192804 46 126 1.7 3.5 0.00 0.00 0.00 80 1021.0
20260502192605 46 123 1.7 3.5 0.00 0.00 0.00 80 1021.1
20260502192505 46 121 1.7 3.5 0.00 0.00 0.00 79 1021.1
20260502192405 46 119 1.7 3.5 0.00 0.00 0.00 78 1021.1
20260502192305 46 121 2.6 3.5 0.00 0.00 0.00 78 1021.2
20260502192204 46 119 2.6 3.5 0.00 0.00 0.00 79 1021.1
20260502192104 46 113 2.6 3.5 0.00 0.00 0.00 78 1021.1
20260502192005 46 110 2.6 3.5 0.00 0.00 0.00 79 1020.9
20260502191804 46 111 2.6 3.5 0.00 0.00 0.00 79 1021.1
20260502191704 46 112 2.6 5.2 0.00 0.00 0.00 79 1021.0
20260502191605 46 116 2.6 5.2 0.00 0.00 0.00 78 1021.1
20260502191504 46 119 3.5 5.2 0.00 0.00 0.00 78 1021.1
20260502191405 46 124 3.5 5.2 0.00 0.00 0.00 78 1021.1
20260502191304 46 125 3.5 5.2 0.00 0.00 0.00 78 1021.0
20260502191005 46 135 4.3 5.2 0.00 0.00 0.00 78 1021.0
20260502190804 46 137 4.3 5.2 0.00 0.00 0.00 78 1020.9
20260502190704 46 140 4.3 5.2 0.00 0.00 0.00 79 1021.0
20260502190604 46 139 4.3 5.2 0.00 0.00 0.00 78 1020.8
20260502190505 46 139 4.3 6.1 0.00 0.00 0.00 78 1020.9
20260502190404 46 138 4.3 6.1 0.00 0.00 0.00 78 1020.7
20260502190305 46 139 4.3 6.1 0.00 0.00 0.00 78 1020.8
20260502190204 46 138 4.3 6.1 0.00 0.00 0.00 79 1020.9
20260502190104 46 136 5.2 6.1 0.00 0.00 0.00 78 1021.0
20260502190005 46 134 4.3 6.1 0.00 0.00 0.00 78 1020.8
20260502185904 46 134 4.3 6.1 0.00 0.00 0.00 79 1020.7
20260502185804 46 134 4.3 6.1 0.00 0.00 0.00 79 1020.8
20260502185704 46 131 4.3 6.1 0.00 0.00 0.00 79 1020.8
20260502185604 46 131 4.3 6.1 0.00 0.00 0.00 78 1021.0
20260502185404 46 127 3.5 5.2 0.00 0.00 0.00 79 1021.0
20260502185305 46 127 3.5 5.2 0.00 0.00 0.00 79 1021.0
20260502185205 46 127 3.5 5.2 0.00 0.00 0.00 79 1020.7
20260502185105 46 125 3.5 3.5 0.00 0.00 0.00 80 1020.8
20260502184904 46 130 3.5 3.5 0.00 0.00 0.00 80 1021.0
20260502184804 46 131 3.5 3.5 0.00 0.00 0.00 80 1020.7
20260502184704 46 132 3.5 3.5 0.00 0.00 0.00 80 1020.6
20260502184604 46 131 3.5 3.5 0.00 0.00 0.00 80 1020.7
20260502184304 46 135 3.5 6.1 0.00 0.00 0.00 80 1020.8
20260502184205 46 135 4.3 6.1 0.00 0.00 0.00 80 1020.8
20260502184005 46 133 4.3 6.1 0.00 0.00 0.00 80 1020.8
20260502183904 46 136 4.3 6.1 0.00 0.00 0.00 80 1020.6
20260502183804 46 135 4.3 6.1 0.00 0.00 0.00 79 1020.7
20260502183604 46 135 4.3 6.1 0.00 0.00 0.00 79 1020.7
20260502183505 46 135 4.3 6.1 0.00 0.00 0.00 79 1020.5
20260502183304 47 135 3.5 5.2 0.00 0.00 0.00 79 1020.5
20260502183205 47 139 3.5 5.2 0.00 0.00 0.00 78 1020.5
20260502183104 47 144 3.5 5.2 0.00 0.00 0.00 78 1020.6
20260502183005 47 148 3.5 5.2 0.00 0.00 0.00 78 1020.5
20260502182704 47 149 3.5 5.2 0.00 0.00 0.00 80 1020.6
20260502182604 47 149 3.5 5.2 0.00 0.00 0.00 80 1020.6
20260502182505 47 149 3.5 5.2 0.00 0.00 0.00 80 1020.5
20260502182404 47 145 3.5 5.2 0.00 0.00 0.00 80 1020.5
20260502182305 47 147 3.5 5.2 0.00 0.00 0.00 79 1020.4
20260502182205 47 142 3.5 3.5 0.00 0.00 0.00 79 1020.5
20260502182104 47 141 3.5 3.5 0.00 0.00 0.00 79 1020.6
20260502182005 47 140 3.5 3.5 0.00 0.00 0.00 80 1020.5
20260502181904 47 137 3.5 3.5 0.00 0.00 0.00 79 1020.7
20260502181804 47 133 3.5 3.5 0.00 0.00 0.00 78 1020.5
20260502181704 47 133 3.5 5.2 0.00 0.00 0.00 79 1020.4
20260502181504 47 128 3.5 5.2 0.00 0.00 0.00 78 1020.2
20260502181404 47 137 4.3 5.2 0.00 0.00 0.00 78 1020.5
20260502181304 47 141 4.3 5.2 0.00 0.00 0.00 78 1020.5
20260502181205 48 147 4.3 5.2 0.00 0.00 0.00 77 1020.6
20260502181105 48 150 4.3 5.2 0.00 0.00 0.00 77 1020.7
20260502181005 48 155 5.2 5.2 0.00 0.00 0.00 76 1020.7
20260502180904 48 156 5.2 5.2 0.00 0.00 0.00 75 1020.5
20260502180804 48 152 5.2 5.2 0.00 0.00 0.00 75 1020.6
20260502180704 48 151 5.2 5.2 0.00 0.00 0.00 76 1020.5
20260502180604 48 152 5.2 5.2 0.00 0.00 0.00 75 1020.5
20260502180505 48 153 5.2 5.2 0.00 0.00 0.00 77 1020.6
20260502180404 48 145 5.2 5.2 0.00 0.00 0.00 77 1020.7
20260502180305 48 137 5.2 5.2 0.00 0.00 0.00 77 1020.3
20260502180204 48 129 5.2 6.1 0.00 0.00 0.00 77 1020.5
20260502180104 48 126 5.2 6.1 0.00 0.00 0.00 77 1020.6
20260502170505 51 146 4.3 6.1 0.00 0.00 0.00 71 1020.3
20260502170405 51 159 4.3 6.1 0.00 0.00 0.00 72 1020.3
20260502170204 51 161 4.3 6.1 0.00 0.00 0.00 72 1020.4
20260502170104 51 161 4.3 6.1 0.00 0.00 0.00 72 1020.4
20260502164305 52 98 3.5 5.2 0.00 0.00 0.00 70 1020.4
20260502163904 52 104 3.5 5.2 0.00 0.00 0.00 69 1020.2
20260502163804 52 97 3.5 5.2 0.00 0.00 0.00 69 1020.7
20260502163704 52 98 3.5 5.2 0.00 0.00 0.00 69 1020.5
20260502163604 52 105 3.5 5.2 0.00 0.00 0.00 68 1020.5
20260502163505 53 94 3.5 5.2 0.00 0.00 0.00 68 1020.5
20260502163404 53 86 3.5 6.1 0.00 0.00 0.00 68 1020.4
20260502163304 53 95 3.5 6.1 0.00 0.00 0.00 68 1020.4
20260502163204 53 100 3.5 6.1 0.00 0.00 0.00 68 1020.4
20260502163104 53 102 3.5 6.1 0.00 0.00 0.00 68 1020.5
20260502162904 53 94 4.3 6.1 0.00 0.00 0.00 69 1020.5
20260502162804 53 96 4.3 6.1 0.00 0.00 0.00 69 1020.4
20260502162704 53 86 4.3 6.1 0.00 0.00 0.00 69 1020.6
20260502162605 53 75 4.3 6.1 0.00 0.00 0.00 68 1020.5
20260502162404 53 82 3.5 6.1 0.00 0.00 0.00 67 1020.5
20260502162305 53 78 3.5 6.1 0.00 0.00 0.00 68 1020.4
20260502162204 54 79 3.5 6.1 0.00 0.00 0.00 66 1020.5
20260502162104 55 73 3.5 6.1 0.00 0.00 0.00 66 1020.5
20260502162005 55 71 3.5 6.1 0.00 0.00 0.00 66 1020.4
20260502161904 55 74 3.5 6.1 0.00 0.00 0.00 65 1020.5
20260502161804 55 75 3.5 6.1 0.00 0.00 0.00 65 1020.5
20260502161704 55 74 3.5 6.1 0.00 0.00 0.00 65 1020.5
20260502161604 55 74 3.5 6.1 0.00 0.00 0.00 65 1020.7
20260502161504 55 78 3.5 6.1 0.00 0.00 0.00 64 1020.5
20260502161404 54 77 3.5 6.1 0.00 0.00 0.00 66 1020.6
20260502161304 54 81 4.3 6.1 0.00 0.00 0.00 65 1020.6
20260502161204 54 84 3.5 6.1 0.00 0.00 0.00 67 1020.7
20260502161104 54 87 3.5 6.1 0.00 0.00 0.00 66 1020.7
20260502161005 55 92 3.5 6.1 0.00 0.00 0.00 65 1020.6
20260502160904 55 95 3.5 6.1 0.00 0.00 0.00 65 1020.6
20260502160804 55 101 3.5 6.1 0.00 0.00 0.00 65 1020.6
20260502160704 55 104 3.5 6.1 0.00 0.00 0.00 66 1020.6
20260502160604 55 116 3.5 5.2 0.00 0.00 0.00 64 1020.8
20260502160504 55 115 3.5 5.2 0.00 0.00 0.00 65 1020.6
20260502160404 55 119 3.5 5.2 0.00 0.00 0.00 64 1020.5
20260502160204 55 109 3.5 5.2 0.00 0.00 0.00 64 1020.5
20260502160104 55 110 3.5 5.2 0.00 0.00 0.00 65 1020.7
20260502152204 56 59 3.5 5.2 0.00 0.00 0.00 63 1021.0
20260502152105 56 60 3.5 5.2 0.00 0.00 0.00 64 1020.8
20260502152004 56 60 3.5 5.2 0.00 0.00 0.00 62 1020.8
20260502151804 57 56 3.5 5.2 0.00 0.00 0.00 64 1020.8
20260502151704 56 54 3.5 6.1 0.00 0.00 0.00 63 1021.0
20260502151604 56 56 3.5 6.1 0.00 0.00 0.00 61 1020.8
20260502151505 56 45 3.5 6.1 0.00 0.00 0.00 60 1021.0
20260502151404 56 44 3.5 6.1 0.00 0.00 0.00 62 1020.9
20260502151304 56 53 3.5 6.1 0.00 0.00 0.00 62 1021.0
20260502151205 56 61 4.3 6.1 0.00 0.00 0.00 63 1020.9
20260502151004 56 69 3.5 6.1 0.00 0.00 0.00 64 1020.9
20260502150504 56 102 3.5 6.1 0.00 0.00 0.00 62 1021.0
20260502150404 56 100 3.5 6.1 0.00 0.00 0.00 60 1021.0
20260502150304 56 99 4.3 6.1 0.00 0.00 0.00 60 1020.8
20260502150204 56 102 4.3 5.2 0.00 0.00 0.00 63 1020.9
20260502140105 58 29 3.5 6.1 0.00 0.00 0.00 58 1021.2
20260502130705 58 344 4.3 7.8 0.00 0.00 0.00 56 1021.7
20260502130604 58 346 4.3 7.8 0.00 0.00 0.00 61 1021.9
20260502130505 58 347 4.3 7.8 0.00 0.00 0.00 59 1021.9
20260502130304 58 339 4.3 5.2 0.00 0.00 0.00 60 1021.7
20260502130204 58 334 4.3 5.2 0.00 0.00 0.00 58 1021.8
20260502130104 58 334 4.3 5.2 0.00 0.00 0.00 58 1021.8
20260502123604 55 13 4.3 7.0 0.00 0.00 0.00 64 1021.9
20260502123504 55 7 4.3 7.0 0.00 0.00 0.00 60 1021.9
20260502123404 58 359 4.3 7.0 0.00 0.00 0.00 57 1021.9
20260502123304 58 352 4.3 7.0 0.00 0.00 0.00 58 1022.0
20260502123204 58 354 4.3 7.0 0.00 0.00 0.00 60 1022.0
20260502123104 58 9 4.3 7.0 0.00 0.00 0.00 58 1022.0
20260502123005 57 17 4.3 7.0 0.00 0.00 0.00 62 1022.0
20260502122905 57 17 4.3 7.0 0.00 0.00 0.00 64 1022.0
20260502122804 57 10 4.3 7.0 0.00 0.00 0.00 60 1021.8
20260502122704 57 13 3.5 7.0 0.00 0.00 0.00 58 1022.0
20260502122604 57 24 3.5 6.1 0.00 0.00 0.00 59 1021.8
20260502122505 57 23 4.3 6.1 0.00 0.00 0.00 63 1021.9
20260502122404 56 24 4.3 6.1 0.00 0.00 0.00 62 1022.0
20260502122204 56 17 4.3 6.1 0.00 0.00 0.00 63 1022.0
20260502122104 57 3 4.3 5.2 0.00 0.00 0.00 63 1022.1
20260502122004 57 353 4.3 7.0 0.00 0.00 0.00 62 1022.2
20260502121904 57 350 4.3 9.6 0.00 0.00 0.00 62 1021.8
20260502121804 57 357 4.3 9.6 0.00 0.00 0.00 63 1022.3
20260502121704 57 2 4.3 9.6 0.00 0.00 0.00 62 1022.2
20260502121604 56 358 4.3 9.6 0.00 0.00 0.00 65 1022.0
20260502121505 56 1 4.3 9.6 0.00 0.00 0.00 69 1022.1
20260502121404 56 348 4.3 9.6 0.00 0.00 0.00 63 1022.2
20260502121304 56 339 4.3 9.6 0.00 0.00 0.00 66 1022.1
20260502121204 56 336 4.3 9.6 0.00 0.00 0.00 66 1022.2
20260502121105 56 336 4.3 9.6 0.00 0.00 0.00 65 1022.1
20260502121005 57 332 4.3 9.6 0.00 0.00 0.00 66 1022.1
20260502120904 57 330 4.3 5.2 0.00 0.00 0.00 64 1022.2
20260502120804 57 331 4.3 5.2 0.00 0.00 0.00 66 1022.2
20260502120704 57 325 4.3 5.2 0.00 0.00 0.00 69 1022.0
20260502120604 56 329 4.3 6.1 0.00 0.00 0.00 66 1022.2
20260502120404 57 341 4.3 6.1 0.00 0.00 0.00 62 1022.3
20260502120203 57 351 4.3 6.1 0.00 0.00 0.00 62 1022.3
20260502120104 57 358 4.3 6.1 0.00 0.00 0.00 62 1022.0
20260502115904 56 9 4.3 7.0 0.00 0.00 0.00 63 1022.2
20260502115804 56 358 5.2 7.0 0.00 0.00 0.00 63 1022.2
20260502115604 56 2 5.2 7.0 0.00 0.00 0.00 60 1022.4
20260502115505 56 353 4.3 7.0 0.00 0.00 0.00 60 1022.3
20260502115404 56 356 4.3 7.0 0.00 0.00 0.00 57 1022.3
20260502115306 56 1 4.3 7.0 0.00 0.00 0.00 59 1022.2
20260502115004 57 2 4.3 7.0 0.00 0.00 0.00 58 1022.3
20260502114904 57 17 4.3 7.0 0.00 0.00 0.00 56 1022.3
20260502114804 57 30 3.5 5.2 0.00 0.00 0.00 63 1022.2
20260502114604 57 41 3.5 5.2 0.00 0.00 0.00 56 1022.3
20260502114204 55 42 4.3 5.2 0.00 0.00 0.00 53 1022.4
20260502114105 56 43 4.3 5.2 0.00 0.00 0.00 56 1022.5
20260502114004 55 50 4.3 5.2 0.00 0.00 0.00 61 1022.3
20260502113904 55 54 4.3 5.2 0.00 0.00 0.00 56 1022.3
20260502113804 55 62 4.3 5.2 0.00 0.00 0.00 59 1022.2
20260502113704 54 54 4.3 5.2 0.00 0.00 0.00 62 1022.6
20260502113604 54 52 4.3 5.2 0.00 0.00 0.00 62 1022.3
20260502113507 54 62 4.3 5.2 0.00 0.00 0.00 61 1022.4
20260502113404 54 65 4.3 5.2 0.00 0.00 0.00 62 1022.5
20260502113304 54 62 4.3 5.2 0.00 0.00 0.00 59 1022.4
20260502113204 54 57 4.3 6.1 0.00 0.00 0.00 63 1022.3
20260502113104 54 58 4.3 6.1 0.00 0.00 0.00 56 1022.5
20260502113004 54 52 4.3 6.1 0.00 0.00 0.00 66 1022.5
20260502112904 54 54 4.3 6.1 0.00 0.00 0.00 63 1022.5
20260502112803 54 55 4.3 6.1 0.00 0.00 0.00 58 1022.4
20260502112704 54 56 4.3 6.1 0.00 0.00 0.00 63 1022.3
20260502112604 54 59 4.3 6.1 0.00 0.00 0.00 53 1022.7
20260502112505 54 55 3.5 6.1 0.00 0.00 0.00 56 1022.5
20260502112405 54 64 3.5 6.1 0.00 0.00 0.00 61 1022.5
20260502112306 55 66 3.5 6.1 0.00 0.00 0.00 64 1022.6
20260502112205 56 63 3.5 6.1 0.00 0.00 0.00 64 1022.7
20260502112104 56 64 3.5 6.1 0.00 0.00 0.00 64 1022.4
20260502112005 56 70 4.3 6.1 0.00 0.00 0.00 62 1022.6
20260502111904 56 61 4.3 6.1 0.00 0.00 0.00 63 1022.5
20260502111804 54 59 4.3 6.1 0.00 0.00 0.00 69 1022.5
20260502111704 53 59 4.3 6.1 0.00 0.00 0.00 65 1022.4
20260502111604 53 56 5.2 6.1 0.00 0.00 0.00 71 1022.4
20260502111505 53 53 5.2 6.1 0.00 0.00 0.00 67 1022.6
20260502111404 53 44 5.2 6.1 0.00 0.00 0.00 66 1022.6
20260502111304 53 47 5.2 6.1 0.00 0.00 0.00 68 1022.6
20260502111204 53 52 5.2 6.1 0.00 0.00 0.00 68 1022.5
20260502111104 52 53 5.2 6.1 0.00 0.00 0.00 69 1022.5
20260502111004 52 47 5.2 6.1 0.00 0.00 0.00 71 1022.8
20260502110904 52 52 5.2 6.1 0.00 0.00 0.00 69 1022.6
20260502110804 52 56 5.2 6.1 0.00 0.00 0.00 72 1022.6
20260502110704 52 58 5.2 6.1 0.00 0.00 0.00 72 1022.7
20260502110604 53 60 5.2 6.1 0.00 0.00 0.00 72 1022.6
20260502110505 53 61 4.3 6.1 0.00 0.00 0.00 72 1022.5
20260502110404 53 72 4.3 6.1 0.00 0.00 0.00 67 1022.8
20260502110304 53 77 4.3 7.0 0.00 0.00 0.00 69 1022.6
20260502110204 53 76 4.3 7.8 0.00 0.00 0.00 72 1022.5
20260502110004 53 81 4.3 7.8 0.00 0.00 0.00 72 1022.6
20260502105804 53 68 5.2 9.6 0.00 0.00 0.00 67 1022.7
20260502105704 53 64 5.2 9.6 0.00 0.00 0.00 67 1022.8
20260502105604 53 61 5.2 9.6 0.00 0.00 0.00 73 1022.6
20260502105505 53 62 5.2 9.6 0.00 0.00 0.00 73 1022.7
20260502105404 53 52 5.2 9.6 0.00 0.00 0.00 68 1022.7
20260502105306 53 44 5.2 9.6 0.00 0.00 0.00 72 1022.7
20260502105204 53 43 4.3 9.6 0.00 0.00 0.00 70 1022.8
20260502105104 53 43 4.3 9.6 0.00 0.00 0.00 76 1022.7
20260502105004 53 36 4.3 9.6 0.00 0.00 0.00 70 1022.6
20260502104904 54 27 4.3 9.6 0.00 0.00 0.00 69 1022.7
20260502104704 54 23 3.5 5.2 0.00 0.00 0.00 67 1022.8
20260502104604 54 20 3.5 7.0 0.00 0.00 0.00 68 1022.6
20260502104505 53 25 4.3 7.0 0.00 0.00 0.00 71 1022.7
20260502104304 53 32 3.5 7.0 0.00 0.00 0.00 67 1022.9
20260502104204 54 25 4.3 7.0 0.00 0.00 0.00 62 1022.8
20260502104103 54 37 4.3 7.0 0.00 0.00 0.00 67 1022.8
20260502104004 54 43 4.3 7.0 0.00 0.00 0.00 71 1022.8
20260502103904 55 46 4.3 7.0 0.00 0.00 0.00 72 1022.7
20260502103804 55 40 4.3 7.0 0.00 0.00 0.00 70 1022.7
20260502103704 55 42 3.5 7.0 0.00 0.00 0.00 73 1022.7
20260502103604 54 50 3.5 7.0 0.00 0.00 0.00 71 1022.9
20260502103505 54 56 3.5 6.1 0.00 0.00 0.00 70 1022.8
20260502103404 54 55 3.5 6.1 0.00 0.00 0.00 67 1022.9
20260502103304 54 51 4.3 6.1 0.00 0.00 0.00 65 1022.8
20260502103204 54 51 4.3 6.1 0.00 0.00 0.00 64 1022.9
20260502103104 54 46 3.5 5.2 0.00 0.00 0.00 70 1022.8
20260502103005 54 37 3.5 5.2 0.00 0.00 0.00 68 1022.9
20260502102904 54 36 3.5 5.2 0.00 0.00 0.00 68 1022.7
20260502102804 53 32 4.3 7.0 0.00 0.00 0.00 67 1022.7
20260502102704 53 26 4.3 7.0 0.00 0.00 0.00 73 1022.6
20260502102605 53 23 4.3 7.0 0.00 0.00 0.00 65 1022.7
20260502102504 53 21 4.3 7.0 0.00 0.00 0.00 63 1022.8
20260502102404 53 14 5.2 7.0 0.00 0.00 0.00 65 1022.9
20260502102204 52 2 5.2 7.0 0.00 0.00 0.00 71 1022.8
20260502102104 52 1 5.2 7.0 0.00 0.00 0.00 70 1022.8
20260502101904 52 357 5.2 7.0 0.00 0.00 0.00 66 1022.9
20260502101804 53 1 5.2 9.6 0.00 0.00 0.00 73 1022.8
20260502101704 53 3 5.2 9.6 0.00 0.00 0.00 77 1022.8
20260502101604 53 354 5.2 9.6 0.00 0.00 0.00 71 1022.7
20260502101504 53 348 5.2 9.6 0.00 0.00 0.00 76 1022.9
20260502101405 53 348 5.2 9.6 0.00 0.00 0.00 73 1022.9
20260502101304 53 349 5.2 9.6 0.00 0.00 0.00 72 1022.6
20260502101104 53 349 5.2 9.6 0.00 0.00 0.00 72 1022.8
20260502101005 53 347 5.2 9.6 0.00 0.00 0.00 74 1022.8
20260502100904 53 347 5.2 9.6 0.00 0.00 0.00 76 1022.7
20260502100804 53 345 5.2 9.6 0.00 0.00 0.00 67 1023.0
20260502100604 53 347 4.3 6.1 0.00 0.00 0.00 70 1022.9
20260502100504 53 349 4.3 6.1 0.00 0.00 0.00 70 1022.7
20260502100404 53 353 3.5 6.1 0.00 0.00 0.00 68 1022.9
20260502100304 53 359 3.5 6.1 0.00 0.00 0.00 66 1022.6
20260502100204 53 4 3.5 6.1 0.00 0.00 0.00 67 1022.9
20260502100104 53 6 3.5 6.1 0.00 0.00 0.00 71 1022.9
20260502091504 49 324 3.5 5.2 0.00 0.00 0.00 81 1023.1
20260502091304 48 322 3.5 5.2 0.00 0.00 0.00 81 1023.1
20260502091204 48 323 3.5 5.2 0.00 0.00 0.00 82 1023.1
20260502091104 48 323 4.3 7.0 0.00 0.00 0.00 81 1023.2
20260502091005 48 322 4.3 7.0 0.00 0.00 0.00 84 1023.1
20260502090904 48 325 4.3 7.0 0.00 0.00 0.00 81 1023.0
20260502090803 49 325 4.3 7.0 0.00 0.00 0.00 82 1023.0
20260502090704 49 325 4.3 7.0 0.00 0.00 0.00 82 1023.1
20260502090604 49 325 4.3 7.0 0.00 0.00 0.00 81 1023.1
20260502090404 49 327 4.3 7.0 0.00 0.00 0.00 81 1022.9
20260502090304 49 329 4.3 7.0 0.00 0.00 0.00 83 1022.9
20260502090204 49 329 4.3 7.0 0.00 0.00 0.00 79 1023.3
20260502090104 49 329 4.3 7.0 0.00 0.00 0.00 81 1023.1
20260502080104 47 322 2.6 3.5 0.00 0.00 0.00 85 1023.2